Time,TemperatureF,DewpointF,PressureIn,WindDirection,WindDirectionDegrees,WindSpeedMPH,WindSpeedGustMPH,Humidity,HourlyPrecipIn,Conditions,Clouds,dailyrainin,SoftwareType,DateUTC
2013-03-17 00:00:00,37.1,31.5,29.87,NNE,23,4.5,5.4,80,0.00,,,0.00,WUHU216HW,2013-03-17 04:00:00,
2013-03-17 00:05:00,37.1,31.5,29.87,NE,45,2.5,5.4,80,0.00,,,0.00,WUHU216HW,2013-03-17 04:05:00,
2013-03-17 00:10:00,37.1,31.5,29.87,ENE,68,2.5,4.3,80,0.00,,,0.00,WUHU216HW,2013-03-17 04:10:00,
2013-03-17 00:15:00,37.1,31.5,29.88,NE,45,1.8,3.1,80,0.00,,,0.00,WUHU216HW,2013-03-17 04:15:00,
2013-03-17 00:20:00,36.9,31.0,29.88,ENE,68,1.3,3.1,79,0.00,,,0.00,WUHU216HW,2013-03-17 04:20:00,
2013-03-17 00:25:00,37.1,31.1,29.89,NE,45,0.7,1.8,79,0.00,,,0.00,WUHU216HW,2013-03-17 04:25:00,
2013-03-17 00:30:00,37.1,31.1,29.89,North,0,0.0,1.8,79,0.00,,,0.00,WUHU216HW,2013-03-17 04:30:00,
2013-03-17 00:35:00,37.1,31.5,29.89,North,0,0.7,1.8,80,0.00,,,0.00,WUHU216HW,2013-03-17 04:35:00,
2013-03-17 00:40:00,37.1,31.1,29.89,NNE,23,0.4,1.8,79,0.00,,,0.00,WUHU216HW,2013-03-17 04:40:00,
2013-03-17 00:45:00,37.1,31.1,29.89,North,0,1.3,2.2,79,0.00,,,0.00,WUHU216HW,2013-03-17 04:45:00,
2013-03-17 00:50:00,37.1,31.1,29.89,NNE,23,1.1,2.2,79,0.00,,,0.00,WUHU216HW,2013-03-17 04:50:00,
2013-03-17 00:55:00,37.1,31.5,29.89,ENE,68,1.8,2.5,80,0.00,,,0.00,WUHU216HW,2013-03-17 04:55:00,
2013-03-17 01:00:00,37.1,31.1,29.89,ENE,68,1.6,2.5,79,0.00,,,0.00,WUHU216HW,2013-03-17 05:00:00,
2013-03-17 01:05:00,36.9,31.0,29.89,NE,45,1.8,1.8,79,0.00,,,0.00,WUHU216HW,2013-03-17 05:05:00,
2013-03-17 01:10:00,36.9,31.0,29.88,North,0,1.8,2.5,79,0.00,,,0.00,WUHU216HW,2013-03-17 05:10:00,
2013-03-17 01:15:00,36.9,31.0,29.88,North,0,1.3,2.5,79,0.00,,,0.00,WUHU216HW,2013-03-17 05:15:00,
2013-03-17 01:20:00,36.7,30.8,29.88,NE,45,1.1,3.4,79,0.00,,,0.00,WUHU216HW,2013-03-17 05:20:00,
2013-03-17 01:25:00,36.7,30.8,29.89,NE,45,1.1,3.4,79,0.00,,,0.00,WUHU216HW,2013-03-17 05:25:00,
2013-03-17 01:30:00,36.7,30.8,29.89,NNE,23,1.3,2.9,79,0.00,,,0.00,WUHU216HW,2013-03-17 05:30:00,
2013-03-17 01:35:00,36.7,30.8,29.89,North,0,0.4,2.7,79,0.00,,,0.00,WUHU216HW,2013-03-17 05:35:00,
2013-03-17 01:40:00,36.7,31.1,29.89,NNE,23,2.0,2.7,80,0.00,,,0.00,WUHU216HW,2013-03-17 05:40:00,
2013-03-17 01:45:00,36.5,31.0,29.88,NNE,23,2.5,3.6,80,0.00,,,0.00,WUHU216HW,2013-03-17 05:45:00,
2013-03-17 01:50:00,36.5,31.0,29.88,NNE,23,2.0,3.6,80,0.00,,,0.00,WUHU216HW,2013-03-17 05:50:00,
2013-03-17 01:55:00,36.4,30.4,29.89,NE,45,0.4,2.5,79,0.00,,,0.00,WUHU216HW,2013-03-17 05:55:00,
2013-03-17 02:00:00,36.4,30.4,29.89,ESE,113,0.4,2.5,79,0.00,,,0.00,WUHU216HW,2013-03-17 06:00:00,
2013-03-17 02:05:00,36.4,30.4,29.89,ESE,113,0.0,0.4,79,0.00,,,0.00,WUHU216HW,2013-03-17 06:05:00,
2013-03-17 02:10:00,36.4,30.4,29.90,NNE,23,0.0,0.9,79,0.00,,,0.00,WUHU216HW,2013-03-17 06:10:00,
2013-03-17 02:15:00,36.4,30.8,29.90,North,0,1.1,1.1,80,0.00,,,0.00,WUHU216HW,2013-03-17 06:15:00,
2013-03-17 02:20:00,36.4,31.1,29.90,NNE,23,2.2,2.7,81,0.00,,,0.00,WUHU216HW,2013-03-17 06:20:00,
2013-03-17 02:25:00,36.4,30.8,29.90,NNW,338,1.6,2.7,80,0.00,,,0.00,WUHU216HW,2013-03-17 06:25:00,
2013-03-17 02:30:00,36.4,30.8,29.91,NNE,23,0.9,1.8,80,0.00,,,0.00,WUHU216HW,2013-03-17 06:30:00,
2013-03-17 02:35:00,36.4,30.8,29.91,NNE,23,1.1,2.0,80,0.00,,,0.00,WUHU216HW,2013-03-17 06:35:00,
2013-03-17 02:40:00,36.2,30.6,29.91,NNE,23,1.6,3.6,80,0.00,,,0.00,WUHU216HW,2013-03-17 06:40:00,
2013-03-17 02:45:00,36.2,30.6,29.91,NE,45,0.4,3.6,80,0.00,,,0.00,WUHU216HW,2013-03-17 06:45:00,
2013-03-17 02:50:00,36.2,30.6,29.91,NNE,23,2.7,2.7,80,0.00,,,0.00,WUHU216HW,2013-03-17 06:50:00,
2013-03-17 02:55:00,36.0,30.4,29.91,NNE,23,1.3,2.7,80,0.00,,,0.00,WUHU216HW,2013-03-17 06:55:00,
2013-03-17 03:00:00,36.0,30.4,29.92,NNE,23,1.8,1.8,80,0.00,,,0.00,WUHU216HW,2013-03-17 07:00:00,
2013-03-17 03:05:00,36.0,30.4,29.92,NNE,23,0.9,2.5,80,0.00,,,0.00,WUHU216HW,2013-03-17 07:05:00,
2013-03-17 03:10:00,36.0,30.4,29.92,NNE,23,2.2,2.5,80,0.00,,,0.00,WUHU216HW,2013-03-17 07:10:00,
2013-03-17 03:15:00,36.0,30.4,29.92,NNE,23,2.0,2.2,80,0.00,,,0.00,WUHU216HW,2013-03-17 07:15:00,
2013-03-17 03:20:00,36.0,30.7,29.91,NE,45,2.5,3.4,81,0.00,,,0.00,WUHU216HW,2013-03-17 07:20:00,
2013-03-17 03:25:00,36.0,30.4,29.91,North,0,1.8,3.4,80,0.00,,,0.00,WUHU216HW,2013-03-17 07:25:00,
2013-03-17 03:30:00,35.8,30.5,29.91,NNE,23,1.1,2.2,81,0.00,,,0.00,WUHU216HW,2013-03-17 07:30:00,
2013-03-17 03:35:00,36.0,30.4,29.91,NNE,23,0.4,2.2,80,0.00,,,0.00,WUHU216HW,2013-03-17 07:35:00,
2013-03-17 03:40:00,36.0,30.4,29.92,SE,135,0.0,1.1,80,0.00,,,0.00,WUHU216HW,2013-03-17 07:40:00,
2013-03-17 03:45:00,36.0,30.4,29.92,SE,135,0.7,0.7,80,0.00,,,0.00,WUHU216HW,2013-03-17 07:45:00,
2013-03-17 03:50:00,36.0,30.4,29.91,North,0,1.1,2.0,80,0.00,,,0.00,WUHU216HW,2013-03-17 07:50:00,
2013-03-17 03:55:00,36.0,30.4,29.92,NNE,23,0.0,2.0,80,0.00,,,0.00,WUHU216HW,2013-03-17 07:55:00,
2013-03-17 04:00:00,36.2,30.6,29.92,ENE,68,0.9,0.9,80,0.00,,,0.00,WUHU216HW,2013-03-17 08:00:00,
2013-03-17 04:05:00,36.2,30.2,29.92,East,90,0.4,1.1,79,0.00,,,0.00,WUHU216HW,2013-03-17 08:05:00,
2013-03-17 04:10:00,36.2,30.2,29.92,NNE,23,0.9,1.1,79,0.00,,,0.00,WUHU216HW,2013-03-17 08:10:00,
2013-03-17 04:15:00,36.2,30.2,29.92,NNE,23,0.4,0.9,79,0.00,,,0.00,WUHU216HW,2013-03-17 08:15:00,
2013-03-17 04:20:00,36.2,30.2,29.92,NNE,23,0.7,1.8,79,0.00,,,0.00,WUHU216HW,2013-03-17 08:20:00,
2013-03-17 04:25:00,36.0,30.1,29.92,NE,45,0.2,1.8,79,0.00,,,0.00,WUHU216HW,2013-03-17 08:25:00,
2013-03-17 04:30:00,36.0,30.1,29.92,SSE,158,0.4,1.6,79,0.00,,,0.00,WUHU216HW,2013-03-17 08:30:00,
2013-03-17 04:35:00,36.0,30.1,29.92,SSE,158,1.1,1.1,79,0.00,,,0.00,WUHU216HW,2013-03-17 08:35:00,
2013-03-17 04:40:00,36.0,29.8,29.92,SSE,158,1.1,1.1,78,0.00,,,0.00,WUHU216HW,2013-03-17 08:40:00,
2013-03-17 04:45:00,36.0,29.8,29.92,SSE,158,0.9,1.1,78,0.00,,,0.00,WUHU216HW,2013-03-17 08:45:00,
2013-03-17 04:50:00,36.0,29.8,29.92,SSE,158,0.0,0.9,78,0.00,,,0.00,WUHU216HW,2013-03-17 08:50:00,
2013-03-17 04:55:00,36.0,29.8,29.92,SSE,158,0.0,0.7,78,0.00,,,0.00,WUHU216HW,2013-03-17 08:55:00,
2013-03-17 05:00:00,36.0,29.8,29.93,SSE,158,0.0,0.4,78,0.00,,,0.00,WUHU216HW,2013-03-17 09:00:00,
2013-03-17 05:05:00,36.0,29.8,29.93,SSE,158,0.0,0.4,78,0.00,,,0.00,WUHU216HW,2013-03-17 09:05:00,
2013-03-17 05:10:00,35.8,29.6,29.93,SSE,158,0.0,0.2,78,0.00,,,0.00,WUHU216HW,2013-03-17 09:10:00,
2013-03-17 05:15:00,35.8,29.9,29.93,SSE,158,0.0,0.2,79,0.00,,,0.00,WUHU216HW,2013-03-17 09:15:00,
2013-03-17 05:20:00,35.6,29.4,29.93,SSE,158,0.0,0.0,78,0.00,,,0.00,WUHU216HW,2013-03-17 09:20:00,
2013-03-17 05:25:00,35.6,29.4,29.93,SSE,158,0.4,0.4,78,0.00,,,0.00,WUHU216HW,2013-03-17 09:25:00,
2013-03-17 05:30:00,35.6,29.4,29.94,SSE,158,0.0,0.7,78,0.00,,,0.00,WUHU216HW,2013-03-17 09:30:00,
2013-03-17 05:35:00,35.6,29.7,29.94,SSE,158,0.0,0.7,79,0.00,,,0.00,WUHU216HW,2013-03-17 09:35:00,
2013-03-17 05:40:00,35.6,29.7,29.95,SSE,158,0.7,0.7,79,0.00,,,0.00,WUHU216HW,2013-03-17 09:40:00,
2013-03-17 05:45:00,35.6,29.7,29.95,SSE,158,0.4,0.7,79,0.00,,,0.00,WUHU216HW,2013-03-17 09:45:00,
2013-03-17 05:50:00,35.6,29.7,29.95,SSE,158,0.4,0.7,79,0.00,,,0.00,WUHU216HW,2013-03-17 09:50:00,
2013-03-17 05:55:00,35.6,29.7,29.95,SSE,158,0.4,0.7,79,0.00,,,0.00,WUHU216HW,2013-03-17 09:55:00,
2013-03-17 06:00:00,35.6,29.7,29.96,SSE,158,1.1,1.1,79,0.00,,,0.00,WUHU216HW,2013-03-17 10:00:00,
2013-03-17 06:05:00,35.6,29.7,29.96,SSW,203,0.4,1.1,79,0.00,,,0.00,WUHU216HW,2013-03-17 10:05:00,
2013-03-17 06:10:00,35.6,29.7,29.97,SSE,158,0.0,1.1,79,0.00,,,0.00,WUHU216HW,2013-03-17 10:10:00,
2013-03-17 06:15:00,35.6,29.7,29.97,SSE,158,0.0,0.2,79,0.00,,,0.00,WUHU216HW,2013-03-17 10:15:00,
2013-03-17 06:20:00,35.6,29.7,29.97,SSE,158,0.4,0.4,79,0.00,,,0.00,WUHU216HW,2013-03-17 10:20:00,
2013-03-17 06:25:00,35.6,29.7,29.97,SSE,158,0.0,0.4,79,0.00,,,0.00,WUHU216HW,2013-03-17 10:25:00,
2013-03-17 06:30:00,35.6,29.7,29.98,SSE,158,0.0,0.4,79,0.00,,,0.00,WUHU216HW,2013-03-17 10:30:00,
2013-03-17 06:35:00,35.6,29.7,29.98,SSE,158,0.0,0.2,79,0.00,,,0.00,WUHU216HW,2013-03-17 10:35:00,
2013-03-17 06:40:00,35.6,29.7,29.98,SSE,158,0.0,0.0,79,0.00,,,0.00,WUHU216HW,2013-03-17 10:40:00,
2013-03-17 06:45:00,35.8,29.9,29.99,SSE,158,0.0,0.7,79,0.00,,,0.00,WUHU216HW,2013-03-17 10:45:00,
2013-03-17 06:50:00,35.8,29.6,29.99,SSE,158,0.0,0.7,78,0.00,,,0.00,WUHU216HW,2013-03-17 10:50:00,
2013-03-17 06:55:00,35.8,29.6,29.99,SSE,158,0.0,0.2,78,0.00,,,0.00,WUHU216HW,2013-03-17 10:55:00,
2013-03-17 07:00:00,35.8,29.9,30.00,SSE,158,0.0,0.2,79,0.00,,,0.00,WUHU216HW,2013-03-17 11:00:00,
2013-03-17 07:05:00,35.8,29.9,30.00,SE,135,1.1,1.1,79,0.00,,,0.00,WUHU216HW,2013-03-17 11:05:00,
2013-03-17 07:10:00,35.6,29.7,30.00,NE,45,0.2,1.1,79,0.00,,,0.00,WUHU216HW,2013-03-17 11:10:00,
2013-03-17 07:15:00,35.6,29.7,30.00,NNE,23,0.9,1.1,79,0.00,,,0.00,WUHU216HW,2013-03-17 11:15:00,
2013-03-17 07:20:00,35.8,29.9,30.00,NE,45,0.4,1.1,79,0.00,,,0.00,WUHU216HW,2013-03-17 11:20:00,
2013-03-17 07:25:00,35.6,29.7,30.01,NNE,23,0.7,1.1,79,0.00,,,0.00,WUHU216HW,2013-03-17 11:25:00,
2013-03-17 07:30:00,35.8,29.9,30.01,NNE,23,1.1,1.1,79,0.00,,,0.00,WUHU216HW,2013-03-17 11:30:00,
2013-03-17 07:35:00,35.8,29.9,30.01,NNE,23,0.7,1.6,79,0.00,,,0.00,WUHU216HW,2013-03-17 11:35:00,
2013-03-17 07:40:00,35.8,29.9,30.01,NNE,23,0.7,1.6,79,0.00,,,0.00,WUHU216HW,2013-03-17 11:40:00,
2013-03-17 07:45:00,35.8,29.9,30.02,NNE,23,0.4,1.1,79,0.00,,,0.00,WUHU216HW,2013-03-17 11:45:00,
2013-03-17 07:50:00,35.8,29.9,30.03,NNE,23,0.4,1.1,79,0.00,,,0.00,WUHU216HW,2013-03-17 11:50:00,
2013-03-17 07:55:00,35.8,29.9,30.03,NNE,23,1.1,1.1,79,0.00,,,0.00,WUHU216HW,2013-03-17 11:55:00,
2013-03-17 08:00:00,36.0,30.1,30.03,NNE,23,0.7,2.0,79,0.00,,,0.00,WUHU216HW,2013-03-17 12:00:00,
2013-03-17 08:05:00,36.0,30.1,30.04,North,0,0.2,2.0,79,0.00,,,0.00,WUHU216HW,2013-03-17 12:05:00,
2013-03-17 08:10:00,35.8,29.9,30.04,North,0,0.4,0.9,79,0.00,,,0.00,WUHU216HW,2013-03-17 12:10:00,
2013-03-17 08:15:00,36.0,30.4,30.04,NNE,23,1.1,1.1,80,0.00,,,0.00,WUHU216HW,2013-03-17 12:15:00,
2013-03-17 08:20:00,36.0,30.4,30.05,NE,45,1.1,2.5,80,0.00,,,0.00,WUHU216HW,2013-03-17 12:20:00,
2013-03-17 08:25:00,36.2,30.6,30.04,NNE,23,1.8,2.9,80,0.00,,,0.00,WUHU216HW,2013-03-17 12:25:00,
2013-03-17 08:30:00,36.4,30.8,30.03,NNE,23,2.9,4.7,80,0.00,,,0.00,WUHU216HW,2013-03-17 12:30:00,
2013-03-17 08:35:00,36.4,31.1,30.04,North,0,3.4,4.7,81,0.00,,,0.00,WUHU216HW,2013-03-17 12:35:00,
2013-03-17 08:40:00,36.4,30.8,30.04,ENE,68,1.6,3.4,80,0.00,,,0.00,WUHU216HW,2013-03-17 12:40:00,
2013-03-17 08:45:00,36.7,31.1,30.04,ENE,68,1.3,2.0,80,0.00,,,0.00,WUHU216HW,2013-03-17 12:45:00,
2013-03-17 08:50:00,36.7,31.1,30.04,NNE,23,1.8,2.9,80,0.00,,,0.00,WUHU216HW,2013-03-17 12:50:00,
2013-03-17 08:55:00,36.9,31.0,30.05,ENE,68,0.2,3.6,79,0.00,,,0.00,WUHU216HW,2013-03-17 12:55:00,
2013-03-17 09:00:00,36.9,31.0,30.06,North,0,0.4,3.6,79,0.00,,,0.00,WUHU216HW,2013-03-17 13:00:00,
2013-03-17 09:05:00,37.1,31.5,30.06,NNE,23,3.4,4.0,80,0.00,,,0.00,WUHU216HW,2013-03-17 13:05:00,
2013-03-17 09:10:00,37.3,31.3,30.06,North,0,0.7,4.0,79,0.00,,,0.00,WUHU216HW,2013-03-17 13:10:00,
2013-03-17 09:15:00,37.3,31.7,30.06,NNE,23,1.8,4.0,80,0.00,,,0.00,WUHU216HW,2013-03-17 13:15:00,
2013-03-17 09:20:00,37.6,32.0,30.06,North,0,2.9,5.4,80,0.00,,,0.00,WUHU216HW,2013-03-17 13:20:00,
2013-03-17 09:25:00,37.8,31.9,30.06,North,0,3.6,5.4,79,0.00,,,0.00,WUHU216HW,2013-03-17 13:25:00,
2013-03-17 09:30:00,37.8,31.6,30.07,North,0,1.1,5.1,78,0.00,,,0.00,WUHU216HW,2013-03-17 13:30:00,
2013-03-17 09:35:00,38.0,31.8,30.07,North,0,5.1,5.1,78,0.00,,,0.00,WUHU216HW,2013-03-17 13:35:00,
2013-03-17 09:40:00,37.8,31.2,30.07,NNE,23,4.9,5.1,77,0.00,,,0.00,WUHU216HW,2013-03-17 13:40:00,
2013-03-17 09:45:00,38.0,31.4,30.08,NNE,23,4.7,5.4,77,0.00,,,0.00,WUHU216HW,2013-03-17 13:45:00,
2013-03-17 09:50:00,37.8,31.6,30.08,NE,45,3.4,5.4,78,0.00,,,0.00,WUHU216HW,2013-03-17 13:50:00,
2013-03-17 09:55:00,38.0,31.4,30.09,NE,45,3.8,4.9,77,0.00,,,0.00,WUHU216HW,2013-03-17 13:55:00,
2013-03-17 10:00:00,38.0,31.4,30.09,NE,45,3.6,4.9,77,0.00,,,0.00,WUHU216HW,2013-03-17 14:00:00,
2013-03-17 10:05:00,38.2,31.6,30.09,NE,45,3.4,3.8,77,0.00,,,0.00,WUHU216HW,2013-03-17 14:05:00,
2013-03-17 10:10:00,38.0,31.4,30.10,ENE,68,0.0,3.8,77,0.00,,,0.00,WUHU216HW,2013-03-17 14:10:00,
2013-03-17 10:15:00,38.0,31.4,30.10,NNE,23,1.3,3.4,77,0.00,,,0.00,WUHU216HW,2013-03-17 14:15:00,
2013-03-17 10:20:00,38.2,31.2,30.10,NNE,23,1.3,3.4,76,0.00,,,0.00,WUHU216HW,2013-03-17 14:20:00,
2013-03-17 10:25:00,38.0,31.1,30.10,NE,45,0.7,2.2,76,0.00,,,0.00,WUHU216HW,2013-03-17 14:25:00,
2013-03-17 10:30:00,38.2,31.2,30.10,NNE,23,1.1,1.3,76,0.00,,,0.00,WUHU216HW,2013-03-17 14:30:00,
2013-03-17 10:35:00,38.0,31.4,30.10,NNE,23,3.4,3.4,77,0.00,,,0.00,WUHU216HW,2013-03-17 14:35:00,
2013-03-17 10:40:00,38.0,31.1,30.09,NNW,338,2.5,3.8,76,0.00,,,0.00,WUHU216HW,2013-03-17 14:40:00,
2013-03-17 10:45:00,38.0,31.1,30.10,North,0,1.8,4.7,76,0.00,,,0.00,WUHU216HW,2013-03-17 14:45:00,
2013-03-17 10:50:00,38.0,30.8,30.09,North,0,2.9,4.7,75,0.00,,,0.00,WUHU216HW,2013-03-17 14:50:00,
2013-03-17 10:55:00,38.0,30.8,30.09,NE,45,2.7,4.0,75,0.00,,,0.00,WUHU216HW,2013-03-17 14:55:00,
2013-03-17 11:00:00,38.0,30.8,30.09,NNE,23,2.5,2.7,75,0.00,,,0.00,WUHU216HW,2013-03-17 15:00:00,
2013-03-17 11:05:00,38.2,30.2,30.09,NNE,23,6.9,9.2,73,0.00,,,0.00,WUHU216HW,2013-03-17 15:05:00,
2013-03-17 11:10:00,38.0,30.4,30.09,NNE,23,5.6,9.2,74,0.00,,,0.00,WUHU216HW,2013-03-17 15:10:00,
2013-03-17 11:15:00,37.8,29.6,30.09,NE,45,4.3,7.8,72,0.00,,,0.00,WUHU216HW,2013-03-17 15:15:00,
2013-03-17 11:20:00,37.8,29.6,30.10,ENE,68,3.8,5.4,72,0.00,,,0.00,WUHU216HW,2013-03-17 15:20:00,
2013-03-17 11:25:00,37.8,29.3,30.09,NE,45,4.0,5.4,71,0.00,,,0.00,WUHU216HW,2013-03-17 15:25:00,
2013-03-17 11:30:00,37.6,29.1,30.10,ENE,68,8.1,8.1,71,0.00,,,0.00,WUHU216HW,2013-03-17 15:30:00,
2013-03-17 11:35:00,37.4,29.0,30.10,NNE,23,6.5,8.1,71,0.00,,,0.00,WUHU216HW,2013-03-17 15:35:00,
2013-03-17 11:40:00,37.3,28.8,30.10,NNE,23,6.3,6.5,71,0.00,,,0.00,WUHU216HW,2013-03-17 15:40:00,
2013-03-17 11:45:00,37.1,28.6,30.11,NE,45,2.5,6.3,71,0.00,,,0.00,WUHU216HW,2013-03-17 15:45:00,
2013-03-17 11:50:00,37.1,28.3,30.11,North,0,3.4,4.9,70,0.00,,,0.00,WUHU216HW,2013-03-17 15:50:00,
2013-03-17 11:56:00,37.1,28.3,30.12,NNE,23,2.5,7.6,70,0.00,,,0.00,WUHU216HW,2013-03-17 15:56:00,
2013-03-17 12:01:00,36.7,27.9,30.13,NE,45,4.0,7.6,70,0.00,,,0.00,WUHU216HW,2013-03-17 16:01:00,
2013-03-17 12:05:00,36.7,27.6,30.13,NNE,23,3.8,5.1,69,0.00,,,0.00,WUHU216HW,2013-03-17 16:05:00,
2013-03-17 12:10:00,36.5,27.4,30.13,NE,45,6.5,6.5,69,0.00,,,0.00,WUHU216HW,2013-03-17 16:10:00,
2013-03-17 12:15:00,36.4,26.8,30.13,NNE,23,6.3,7.4,68,0.00,,,0.00,WUHU216HW,2013-03-17 16:15:00,
2013-03-17 12:20:00,36.4,26.8,30.12,NE,45,3.4,8.3,68,0.00,,,0.00,WUHU216HW,2013-03-17 16:20:00,
2013-03-17 12:25:00,36.4,26.8,30.12,NNE,23,4.3,8.3,68,0.00,,,0.00,WUHU216HW,2013-03-17 16:25:00,
2013-03-17 12:30:00,36.4,26.8,30.12,NE,45,3.4,6.5,68,0.00,,,0.00,WUHU216HW,2013-03-17 16:30:00,
2013-03-17 12:35:00,36.5,27.0,30.12,NNE,23,4.3,6.5,68,0.00,,,0.00,WUHU216HW,2013-03-17 16:35:00,
2013-03-17 12:40:00,36.5,26.7,30.12,North,0,2.9,5.1,67,0.00,,,0.00,WUHU216HW,2013-03-17 16:40:00,
2013-03-17 12:45:00,36.5,26.7,30.11,NNE,23,4.0,6.0,67,0.00,,,0.00,WUHU216HW,2013-03-17 16:45:00,
2013-03-17 12:50:00,36.5,26.7,30.12,NNE,23,4.0,6.0,67,0.00,,,0.00,WUHU216HW,2013-03-17 16:50:00,
2013-03-17 12:55:00,36.7,26.8,30.12,North,0,2.9,4.9,67,0.00,,,0.00,WUHU216HW,2013-03-17 16:55:00,
2013-03-17 13:00:00,36.7,26.8,30.11,ENE,68,4.0,4.7,67,0.00,,,0.00,WUHU216HW,2013-03-17 17:00:00,
2013-03-17 13:05:00,36.9,27.0,30.11,North,0,3.8,5.4,67,0.00,,,0.00,WUHU216HW,2013-03-17 17:05:00,
2013-03-17 13:10:00,37.1,26.7,30.10,NNE,23,6.3,6.3,66,0.00,,,0.00,WUHU216HW,2013-03-17 17:10:00,
2013-03-17 13:15:00,37.1,26.4,30.11,ENE,68,5.8,6.7,65,0.00,,,0.00,WUHU216HW,2013-03-17 17:15:00,
2013-03-17 13:20:00,37.1,26.7,30.11,NE,45,5.1,6.7,66,0.00,,,0.00,WUHU216HW,2013-03-17 17:20:00,
2013-03-17 13:25:00,37.1,26.4,30.11,ENE,68,4.5,6.3,65,0.00,,,0.00,WUHU216HW,2013-03-17 17:25:00,
2013-03-17 13:30:00,37.3,26.6,30.10,NNE,23,3.1,6.3,65,0.00,,,0.00,WUHU216HW,2013-03-17 17:30:00,
2013-03-17 13:35:00,37.4,26.4,30.10,ENE,68,3.4,6.3,64,0.00,,,0.00,WUHU216HW,2013-03-17 17:35:00,
2013-03-17 13:40:00,37.8,27.1,30.10,NNE,23,2.2,6.3,65,0.00,,,0.00,WUHU216HW,2013-03-17 17:40:00,
2013-03-17 13:45:00,38.2,26.7,30.11,NE,45,4.9,6.7,63,0.00,,,0.00,WUHU216HW,2013-03-17 17:45:00,
2013-03-17 13:50:00,38.0,26.5,30.10,NE,45,2.7,6.7,63,0.00,,,0.00,WUHU216HW,2013-03-17 17:50:00,
2013-03-17 13:55:00,38.2,26.7,30.10,NE,45,3.1,6.0,63,0.00,,,0.00,WUHU216HW,2013-03-17 17:55:00,
2013-03-17 14:00:00,38.3,26.8,30.11,ENE,68,4.5,6.0,63,0.00,,,0.00,WUHU216HW,2013-03-17 18:00:00,
2013-03-17 14:05:00,38.3,26.8,30.10,NE,45,3.6,6.0,63,0.00,,,0.00,WUHU216HW,2013-03-17 18:05:00,
2013-03-17 14:10:00,38.5,26.9,30.10,NE,45,3.4,6.0,63,0.00,,,0.00,WUHU216HW,2013-03-17 18:10:00,
2013-03-17 14:16:00,38.5,26.6,30.10,NNE,23,5.4,5.4,62,0.00,,,0.00,WUHU216HW,2013-03-17 18:16:00,
2013-03-17 14:21:00,38.7,26.4,30.11,NE,45,3.4,5.4,61,0.00,,,0.00,WUHU216HW,2013-03-17 18:21:00,
2013-03-17 14:26:00,38.7,26.7,30.11,NE,45,2.2,4.7,62,0.00,,,0.00,WUHU216HW,2013-03-17 18:26:00,
2013-03-17 14:31:00,38.9,26.9,30.11,NNE,23,4.7,4.9,62,0.00,,,0.00,WUHU216HW,2013-03-17 18:31:00,
2013-03-17 14:36:00,38.9,26.9,30.11,North,0,3.4,4.9,62,0.00,,,0.00,WUHU216HW,2013-03-17 18:36:00,
2013-03-17 14:41:00,38.9,26.9,30.11,NNE,23,2.5,3.6,62,0.00,,,0.00,WUHU216HW,2013-03-17 18:41:00,
2013-03-17 14:46:00,38.9,27.3,30.11,NNE,23,3.6,3.6,63,0.00,,,0.00,WUHU216HW,2013-03-17 18:46:00,
2013-03-17 14:51:00,38.9,26.6,30.11,ENE,68,2.5,4.5,61,0.00,,,0.00,WUHU216HW,2013-03-17 18:51:00,
2013-03-17 14:56:00,38.9,26.9,30.11,NNE,23,2.7,4.5,62,0.00,,,0.00,WUHU216HW,2013-03-17 18:56:00,
2013-03-17 15:01:00,38.7,26.4,30.11,NE,45,2.5,4.0,61,0.00,,,0.00,WUHU216HW,2013-03-17 19:01:00,
2013-03-17 15:06:00,38.7,26.4,30.11,North,0,0.4,4.5,61,0.00,,,0.00,WUHU216HW,2013-03-17 19:06:00,
2013-03-17 15:11:00,38.5,26.2,30.11,NNE,23,2.9,4.5,61,0.00,,,0.00,WUHU216HW,2013-03-17 19:11:00,
2013-03-17 15:16:00,38.5,26.2,30.11,ENE,68,2.5,4.9,61,0.00,,,0.00,WUHU216HW,2013-03-17 19:16:00,
2013-03-17 15:21:00,38.5,26.6,30.10,NE,45,2.0,4.9,62,0.00,,,0.00,WUHU216HW,2013-03-17 19:21:00,
2013-03-17 15:27:00,38.7,26.4,30.11,North,0,0.9,4.0,61,0.00,,,0.00,WUHU216HW,2013-03-17 19:27:00,
2013-03-17 15:32:00,38.5,25.8,30.11,NNW,338,1.1,4.0,60,0.00,,,0.00,WUHU216HW,2013-03-17 19:32:00,
2013-03-17 15:37:00,38.3,26.0,30.10,North,0,3.1,4.3,61,0.00,,,0.00,WUHU216HW,2013-03-17 19:37:00,
2013-03-17 15:42:00,38.5,25.8,30.10,NNE,23,1.1,4.3,60,0.00,,,0.00,WUHU216HW,2013-03-17 19:42:00,
2013-03-17 15:47:00,38.5,25.8,30.10,East,90,0.9,3.4,60,0.00,,,0.00,WUHU216HW,2013-03-17 19:47:00,
2013-03-17 15:52:00,38.5,25.8,30.11,NNE,23,2.5,2.5,60,0.00,,,0.00,WUHU216HW,2013-03-17 19:52:00,
2013-03-17 15:56:00,38.5,26.2,30.11,East,90,1.1,3.8,61,0.00,,,0.00,WUHU216HW,2013-03-17 19:56:00,
2013-03-17 16:01:00,38.5,25.8,30.11,ENE,68,2.2,3.8,60,0.00,,,0.00,WUHU216HW,2013-03-17 20:01:00,
2013-03-17 16:07:00,38.7,26.4,30.11,East,90,2.9,3.4,61,0.00,,,0.00,WUHU216HW,2013-03-17 20:07:00,
2013-03-17 16:12:00,38.7,26.0,30.10,NNE,23,2.0,3.1,60,0.00,,,0.00,WUHU216HW,2013-03-17 20:12:00,
2013-03-17 16:17:00,38.7,25.6,30.11,SE,135,1.1,3.1,59,0.00,,,0.00,WUHU216HW,2013-03-17 20:17:00,
2013-03-17 16:22:00,38.9,26.1,30.11,East,90,2.2,2.2,60,0.00,,,0.00,WUHU216HW,2013-03-17 20:22:00,
2013-03-17 16:27:00,39.1,26.3,30.11,East,90,1.3,2.2,60,0.00,,,0.00,WUHU216HW,2013-03-17 20:27:00,
2013-03-17 16:32:00,39.1,26.3,30.11,NW,315,0.2,1.8,60,0.00,,,0.00,WUHU216HW,2013-03-17 20:32:00,
2013-03-17 16:37:00,39.1,26.3,30.11,ESE,113,2.5,3.4,60,0.00,,,0.00,WUHU216HW,2013-03-17 20:37:00,
2013-03-17 16:42:00,38.9,25.8,30.11,NE,45,2.5,4.0,59,0.00,,,0.00,WUHU216HW,2013-03-17 20:42:00,
2013-03-17 16:47:00,38.9,26.1,30.11,NNE,23,3.1,4.0,60,0.00,,,0.00,WUHU216HW,2013-03-17 20:47:00,
2013-03-17 16:52:00,38.9,26.1,30.11,NNE,23,1.1,3.1,60,0.00,,,0.00,WUHU216HW,2013-03-17 20:52:00,
2013-03-17 16:57:00,38.7,26.4,30.11,North,0,2.0,3.1,61,0.00,,,0.00,WUHU216HW,2013-03-17 20:57:00,
2013-03-17 17:02:00,38.7,26.0,30.11,ENE,68,1.6,2.7,60,0.00,,,0.00,WUHU216HW,2013-03-17 21:02:00,
2013-03-17 17:07:00,38.7,26.0,30.11,ENE,68,0.4,2.7,60,0.00,,,0.00,WUHU216HW,2013-03-17 21:07:00,
2013-03-17 17:12:00,38.9,26.1,30.11,ENE,68,1.3,1.3,60,0.00,,,0.00,WUHU216HW,2013-03-17 21:12:00,
2013-03-17 17:17:00,39.1,26.6,30.12,ENE,68,1.8,1.8,61,0.00,,,0.00,WUHU216HW,2013-03-17 21:17:00,
2013-03-17 17:22:00,39.1,26.3,30.12,ENE,68,1.6,1.8,60,0.00,,,0.00,WUHU216HW,2013-03-17 21:22:00,
2013-03-17 17:27:00,39.2,26.5,30.12,NNE,23,1.1,1.8,60,0.00,,,0.00,WUHU216HW,2013-03-17 21:27:00,
2013-03-17 17:32:00,39.2,26.5,30.12,ENE,68,1.1,2.2,60,0.00,,,0.00,WUHU216HW,2013-03-17 21:32:00,
2013-03-17 17:37:00,39.2,26.5,30.12,North,0,0.9,2.5,60,0.00,,,0.00,WUHU216HW,2013-03-17 21:37:00,
2013-03-17 17:42:00,39.2,26.0,30.12,NE,45,1.1,2.5,59,0.00,,,0.00,WUHU216HW,2013-03-17 21:42:00,
2013-03-17 17:47:00,39.1,26.3,30.12,East,90,0.7,1.6,60,0.00,,,0.00,WUHU216HW,2013-03-17 21:47:00,
2013-03-17 17:52:00,39.1,25.8,30.12,ESE,113,0.0,1.6,59,0.00,,,0.00,WUHU216HW,2013-03-17 21:52:00,
2013-03-17 17:57:00,39.1,26.3,30.13,SSE,158,0.9,1.6,60,0.00,,,0.00,WUHU216HW,2013-03-17 21:57:00,
2013-03-17 18:02:00,39.1,26.3,30.13,ENE,68,0.4,1.1,60,0.00,,,0.00,WUHU216HW,2013-03-17 22:02:00,
2013-03-17 18:07:00,38.9,26.1,30.13,NNE,23,1.3,1.6,60,0.00,,,0.00,WUHU216HW,2013-03-17 22:07:00,
2013-03-17 18:12:00,38.7,26.0,30.13,East,90,0.4,1.6,60,0.00,,,0.00,WUHU216HW,2013-03-17 22:12:00,
2013-03-17 18:17:00,38.7,26.0,30.13,SE,135,0.4,1.1,60,0.00,,,0.00,WUHU216HW,2013-03-17 22:17:00,
2013-03-17 18:22:00,38.7,26.0,30.13,East,90,0.4,1.3,60,0.00,,,0.00,WUHU216HW,2013-03-17 22:22:00,
2013-03-17 18:27:00,38.7,26.0,30.13,East,90,0.2,1.3,60,0.00,,,0.00,WUHU216HW,2013-03-17 22:27:00,
2013-03-17 18:32:00,38.7,26.4,30.13,SSE,158,1.1,1.1,61,0.00,,,0.00,WUHU216HW,2013-03-17 22:32:00,
2013-03-17 18:38:00,38.7,26.0,30.13,SSW,203,1.1,1.1,60,0.00,,,0.00,WUHU216HW,2013-03-17 22:38:00,
2013-03-17 18:43:00,38.5,25.8,30.13,SE,135,0.2,1.6,60,0.00,,,0.00,WUHU216HW,2013-03-17 22:43:00,
2013-03-17 18:48:00,38.5,25.8,30.14,SE,135,1.1,1.6,60,0.00,,,0.00,WUHU216HW,2013-03-17 22:48:00,
2013-03-17 18:53:00,38.3,25.7,30.14,SSE,158,0.7,1.6,60,0.00,,,0.00,WUHU216HW,2013-03-17 22:53:00,
2013-03-17 18:58:00,38.3,25.7,30.14,SSE,158,0.0,1.1,60,0.00,,,0.00,WUHU216HW,2013-03-17 22:58:00,
2013-03-17 19:03:00,38.3,25.7,30.14,SSE,158,0.7,0.9,60,0.00,,,0.00,WUHU216HW,2013-03-17 23:03:00,
2013-03-17 19:08:00,38.2,25.8,30.14,SSE,158,0.4,0.7,61,0.00,,,0.00,WUHU216HW,2013-03-17 23:08:00,
2013-03-17 19:13:00,38.2,25.5,30.14,ESE,113,0.4,0.7,60,0.00,,,0.00,WUHU216HW,2013-03-17 23:13:00,
2013-03-17 19:18:00,38.0,25.8,30.14,SE,135,1.3,1.3,61,0.00,,,0.00,WUHU216HW,2013-03-17 23:18:00,
2013-03-17 19:23:00,37.8,25.6,30.15,SE,135,0.0,1.3,61,0.00,,,0.00,WUHU216HW,2013-03-17 23:23:00,
2013-03-17 19:28:00,37.8,25.6,30.15,ESE,113,0.4,1.1,61,0.00,,,0.00,WUHU216HW,2013-03-17 23:28:00,
2013-03-17 19:33:00,37.8,25.6,30.15,East,90,0.4,1.1,61,0.00,,,0.00,WUHU216HW,2013-03-17 23:33:00,
2013-03-17 19:38:00,37.6,25.4,30.15,SSE,158,0.2,2.5,61,0.00,,,0.00,WUHU216HW,2013-03-17 23:38:00,
2013-03-17 19:43:00,37.6,25.4,30.15,SSE,158,1.1,2.5,61,0.00,,,0.00,WUHU216HW,2013-03-17 23:43:00,
2013-03-17 19:48:00,37.4,25.2,30.15,SSE,158,0.0,1.1,61,0.00,,,0.00,WUHU216HW,2013-03-17 23:48:00,
2013-03-17 19:53:00,37.4,25.2,30.15,SSE,158,0.7,1.3,61,0.00,,,0.00,WUHU216HW,2013-03-17 23:53:00,
2013-03-17 19:58:00,37.3,25.0,30.15,SSE,158,1.1,1.3,61,0.00,,,0.00,WUHU216HW,2013-03-17 23:58:00,
2013-03-17 20:03:00,37.1,24.9,30.16,SSW,203,0.2,1.1,61,0.00,,,0.00,WUHU216HW,2013-03-18 00:03:00,
2013-03-17 20:08:00,37.1,24.9,30.16,SSW,203,0.9,1.3,61,0.00,,,0.00,WUHU216HW,2013-03-18 00:08:00,
2013-03-17 20:13:00,37.1,24.9,30.16,South,180,0.2,2.7,61,0.00,,,0.00,WUHU216HW,2013-03-18 00:13:00,
2013-03-17 20:18:00,37.1,24.9,30.16,SSE,158,0.2,2.7,61,0.00,,,0.00,WUHU216HW,2013-03-18 00:18:00,
2013-03-17 20:23:00,37.1,25.3,30.16,SSE,158,0.2,1.1,62,0.00,,,0.00,WUHU216HW,2013-03-18 00:23:00,
2013-03-17 20:28:00,37.1,25.3,30.16,SSE,158,1.3,1.3,62,0.00,,,0.00,WUHU216HW,2013-03-18 00:28:00,
2013-03-17 20:33:00,37.1,25.3,30.16,SSE,158,0.0,1.3,62,0.00,,,0.00,WUHU216HW,2013-03-18 00:33:00,
2013-03-17 20:38:00,36.9,25.1,30.16,SW,225,0.4,1.3,62,0.00,,,0.00,WUHU216HW,2013-03-18 00:38:00,
2013-03-17 20:43:00,36.7,24.9,30.16,SW,225,0.0,0.7,62,0.00,,,0.00,WUHU216HW,2013-03-18 00:43:00,
2013-03-17 20:48:00,36.7,24.9,30.16,SSE,158,0.0,0.4,62,0.00,,,0.00,WUHU216HW,2013-03-18 00:48:00,
2013-03-17 20:53:00,36.7,24.9,30.16,SSE,158,0.0,0.4,62,0.00,,,0.00,WUHU216HW,2013-03-18 00:53:00,
2013-03-17 20:58:00,36.7,24.9,30.16,SSE,158,0.0,0.0,62,0.00,,,0.00,WUHU216HW,2013-03-18 00:58:00,
2013-03-17 21:03:00,36.7,24.9,30.16,SSE,158,0.0,0.0,62,0.00,,,0.00,WUHU216HW,2013-03-18 01:03:00,
2013-03-17 21:08:00,36.7,24.9,30.17,SSE,158,0.0,0.0,62,0.00,,,0.00,WUHU216HW,2013-03-18 01:08:00,
2013-03-17 21:13:00,36.7,24.9,30.17,SSE,158,0.0,0.0,62,0.00,,,0.00,WUHU216HW,2013-03-18 01:13:00,
2013-03-17 21:18:00,36.7,24.9,30.17,SSE,158,0.0,0.0,62,0.00,,,0.00,WUHU216HW,2013-03-18 01:18:00,
2013-03-17 21:23:00,36.5,25.1,30.17,SSE,158,0.0,0.0,63,0.00,,,0.00,WUHU216HW,2013-03-18 01:23:00,
2013-03-17 21:28:00,36.5,24.8,30.18,SSE,158,0.4,1.1,62,0.00,,,0.00,WUHU216HW,2013-03-18 01:28:00,
2013-03-17 21:33:00,36.4,24.6,30.18,SSE,158,0.0,1.1,62,0.00,,,0.00,WUHU216HW,2013-03-18 01:33:00,
2013-03-17 21:38:00,36.4,24.9,30.18,SW,225,0.0,1.1,63,0.00,,,0.00,WUHU216HW,2013-03-18 01:38:00,
2013-03-17 21:43:00,36.4,24.9,30.18,SW,225,0.0,1.1,63,0.00,,,0.00,WUHU216HW,2013-03-18 01:43:00,
2013-03-17 21:48:00,36.4,24.9,30.18,South,180,0.0,0.4,63,0.00,,,0.00,WUHU216HW,2013-03-18 01:48:00,
2013-03-17 21:53:00,36.4,24.9,30.18,SSE,158,0.0,0.9,63,0.00,,,0.00,WUHU216HW,2013-03-18 01:53:00,
2013-03-17 21:58:00,36.4,25.4,30.18,SSE,158,0.0,0.9,64,0.00,,,0.00,WUHU216HW,2013-03-18 01:58:00,
2013-03-17 22:03:00,36.4,25.4,30.18,SSE,158,0.0,0.0,64,0.00,,,0.00,WUHU216HW,2013-03-18 02:03:00,
2013-03-17 22:08:00,36.4,25.4,30.18,SSE,158,0.0,0.0,64,0.00,,,0.00,WUHU216HW,2013-03-18 02:08:00,
2013-03-17 22:13:00,36.2,25.2,30.18,SSE,158,0.0,0.0,64,0.00,,,0.00,WUHU216HW,2013-03-18 02:13:00,
2013-03-17 22:18:00,36.2,25.2,30.18,SSE,158,0.0,0.0,64,0.00,,,0.00,WUHU216HW,2013-03-18 02:18:00,
2013-03-17 22:23:00,36.2,25.2,30.18,SSE,158,0.0,0.0,64,0.00,,,0.00,WUHU216HW,2013-03-18 02:23:00,
2013-03-17 22:28:00,36.2,25.6,30.18,SSE,158,0.0,0.0,65,0.00,,,0.00,WUHU216HW,2013-03-18 02:28:00,
2013-03-17 22:33:00,36.2,25.6,30.18,SSE,158,0.0,0.0,65,0.00,,,0.00,WUHU216HW,2013-03-18 02:33:00,
2013-03-17 22:38:00,36.2,25.6,30.18,SSE,158,0.0,0.0,65,0.00,,,0.00,WUHU216HW,2013-03-18 02:38:00,
2013-03-17 22:43:00,36.2,25.6,30.18,SSE,158,0.0,0.0,65,0.00,,,0.00,WUHU216HW,2013-03-18 02:43:00,
2013-03-17 22:48:00,36.2,25.6,30.18,SSE,158,0.0,0.0,65,0.00,,,0.00,WUHU216HW,2013-03-18 02:48:00,
2013-03-17 22:53:00,36.2,25.6,30.18,SSE,158,0.0,0.0,65,0.00,,,0.00,WUHU216HW,2013-03-18 02:53:00,
2013-03-17 22:58:00,36.2,25.6,30.18,SSE,158,0.0,0.0,65,0.00,,,0.00,WUHU216HW,2013-03-18 02:58:00,
2013-03-17 23:03:00,36.0,25.4,30.19,SSE,158,0.0,0.0,65,0.00,,,0.00,WUHU216HW,2013-03-18 03:03:00,
2013-03-17 23:08:00,36.0,25.4,30.19,SSE,158,0.0,0.0,65,0.00,,,0.00,WUHU216HW,2013-03-18 03:08:00,
2013-03-17 23:13:00,36.0,25.4,30.19,SSE,158,0.0,0.0,65,0.00,,,0.00,WUHU216HW,2013-03-18 03:13:00,
2013-03-17 23:18:00,36.0,25.4,30.19,SSE,158,0.0,0.0,65,0.00,,,0.00,WUHU216HW,2013-03-18 03:18:00,
2013-03-17 23:23:00,36.0,25.4,30.19,SSE,158,0.4,0.9,65,0.00,,,0.00,WUHU216HW,2013-03-18 03:23:00,
2013-03-17 23:28:00,36.0,25.4,30.19,SSW,203,0.4,0.9,65,0.00,,,0.00,WUHU216HW,2013-03-18 03:28:00,
2013-03-17 23:33:00,36.0,25.8,30.19,SSW,203,0.4,2.5,66,0.00,,,0.00,WUHU216HW,2013-03-18 03:33:00,
2013-03-17 23:38:00,36.0,25.8,30.19,South,180,1.6,2.5,66,0.00,,,0.00,WUHU216HW,2013-03-18 03:38:00,
2013-03-17 23:43:00,35.8,25.9,30.19,SSW,203,1.6,2.2,67,0.00,,,0.00,WUHU216HW,2013-03-18 03:43:00,
2013-03-17 23:48:00,35.8,25.9,30.20,WSW,248,2.2,2.2,67,0.00,,,0.00,WUHU216HW,2013-03-18 03:48:00,
2013-03-17 23:53:00,35.6,25.7,30.20,SSW,203,2.9,2.9,67,0.00,,,0.00,WUHU216HW,2013-03-18 03:53:00,
2013-03-17 23:58:00,35.6,26.1,30.20,SSW,203,1.8,2.9,68,0.00,,,0.00,WUHU216HW,2013-03-18 03:58:00,